Time,TemperatureF,DewpointF,PressureIn,WindDirection,WindDirectionDegrees,WindSpeedMPH,WindSpeedGustMPH,Humidity,HourlyPrecipIn,Conditions,Clouds,dailyrainin,SoftwareType,DateUTC
2013-11-20 00:01:00,30.9,-7.6,29.97,West,280,0.0,0.0,18,0.00,,---,0.00,VWS V13.01,2013-11-20 05:01:00,
2013-11-20 00:02:00,31.1,-7.4,29.97,North,10,0.0,0.0,18,0.00,,---,0.00,VWS V13.01,2013-11-20 05:02:00,
2013-11-20 00:05:00,31.1,-7.4,29.97,NNW,330,0.0,0.0,18,0.00,,---,0.00,VWS V13.01,2013-11-20 05:05:00,
2013-11-20 00:10:00,30.9,-7.6,29.97,WNW,291,0.0,0.0,18,0.00,,---,0.00,VWS V13.01,2013-11-20 05:10:00,
2013-11-20 00:15:00,30.9,-7.6,29.97,North,357,0.0,0.0,18,0.00,,---,0.00,VWS V13.01,2013-11-20 05:15:00,
2013-11-20 00:20:00,30.9,-7.6,29.97,North,7,0.0,0.0,18,0.00,,---,0.00,VWS V13.01,2013-11-20 05:20:00,
2013-11-20 00:25:00,30.9,-7.6,29.97,NNW,337,0.0,0.0,18,0.00,,---,0.00,VWS V13.01,2013-11-20 05:25:00,
2013-11-20 00:30:00,31.1,-7.4,29.97,NNW,331,0.0,0.0,18,0.00,,---,0.00,VWS V13.01,2013-11-20 05:30:00,
2013-11-20 00:35:00,31.1,-7.4,29.97,North,357,0.0,0.0,18,0.00,,---,0.00,VWS V13.01,2013-11-20 05:35:00,
2013-11-20 00:40:00,30.9,-7.6,29.97,WNW,289,0.0,0.0,18,0.00,,---,0.00,VWS V13.01,2013-11-20 05:40:00,
2013-11-20 00:46:00,30.9,-7.6,29.97,West,273,0.0,0.0,18,0.00,,---,0.00,VWS V13.01,2013-11-20 05:46:00,
2013-11-20 00:51:00,30.9,-7.6,29.97,NNW,343,0.0,0.0,18,0.00,,---,0.00,VWS V13.01,2013-11-20 05:51:00,
2013-11-20 00:56:00,30.6,-7.9,29.97,North,357,0.0,0.0,18,0.00,,---,0.00,VWS V13.01,2013-11-20 05:56:00,
2013-11-20 01:01:00,30.6,-7.9,29.97,WNW,302,0.0,0.0,18,0.00,,---,0.00,VWS V13.01,2013-11-20 06:01:00,
2013-11-20 01:06:00,30.4,-8.0,29.97,NNW,339,0.0,0.0,18,0.00,,---,0.00,VWS V13.01,2013-11-20 06:06:00,
2013-11-20 01:11:00,30.6,-7.9,29.97,North,357,0.0,0.0,18,0.00,,---,0.00,VWS V13.01,2013-11-20 06:11:00,
2013-11-20 01:16:00,30.4,-8.0,29.97,North,10,0.0,0.0,18,0.00,,---,0.00,VWS V13.01,2013-11-20 06:16:00,
2013-11-20 01:22:00,30.2,-8.2,29.97,NW,307,0.0,0.0,18,0.00,,---,0.00,VWS V13.01,2013-11-20 06:22:00,
2013-11-20 01:27:00,30.2,-8.2,29.97,NE,39,0.0,7.4,18,0.00,,---,0.00,VWS V13.01,2013-11-20 06:27:00,
2013-11-20 01:32:00,30.2,-8.2,29.97,NNW,332,0.0,7.4,18,0.00,,---,0.00,VWS V13.01,2013-11-20 06:32:00,
2013-11-20 01:37:00,30.4,-8.0,29.97,North,357,0.0,7.4,18,0.00,,---,0.00,VWS V13.01,2013-11-20 06:37:00,
2013-11-20 01:42:00,30.2,-8.2,29.97,North,349,0.0,0.0,18,0.00,,---,0.00,VWS V13.01,2013-11-20 06:42:00,
2013-11-20 01:47:00,30.4,-8.0,29.97,North,4,0.0,0.0,18,0.00,,---,0.00,VWS V13.01,2013-11-20 06:47:00,
2013-11-20 01:53:00,30.2,-8.2,29.97,North,353,0.0,0.0,18,0.00,,---,0.00,VWS V13.01,2013-11-20 06:53:00,
2013-11-20 01:58:00,30.2,-8.2,29.97,NW,314,0.0,0.0,18,0.00,,---,0.00,VWS V13.01,2013-11-20 06:58:00,
2013-11-20 02:03:00,30.2,-8.2,30.00,NNW,348,0.0,0.0,18,0.00,,---,0.00,VWS V13.01,2013-11-20 07:03:00,
2013-11-20 02:08:00,30.2,-8.2,30.00,North,357,0.0,6.5,18,0.00,,---,0.00,VWS V13.01,2013-11-20 07:08:00,
2013-11-20 02:13:00,30.2,-8.2,30.00,North,350,0.0,6.5,18,0.00,,---,0.00,VWS V13.01,2013-11-20 07:13:00,
2013-11-20 02:18:00,30.0,-8.3,30.00,NNW,334,0.0,6.5,18,0.00,,---,0.00,VWS V13.01,2013-11-20 07:18:00,
2013-11-20 02:23:00,30.0,-8.3,30.00,NW,313,0.0,0.0,18,0.00,,---,0.00,VWS V13.01,2013-11-20 07:23:00,
2013-11-20 02:29:00,30.0,-8.3,30.00,NW,311,0.0,0.0,18,0.00,,---,0.00,VWS V13.01,2013-11-20 07:29:00,
2013-11-20 02:34:00,29.8,-8.5,30.00,North,353,0.0,0.0,18,0.00,,---,0.00,VWS V13.01,2013-11-20 07:34:00,
2013-11-20 02:39:00,29.8,-8.5,30.00,NNW,340,0.0,0.0,18,0.00,,---,0.00,VWS V13.01,2013-11-20 07:39:00,
2013-11-20 02:44:00,29.8,-8.5,30.00,NNW,329,0.0,0.0,18,0.00,,---,0.00,VWS V13.01,2013-11-20 07:44:00,
2013-11-20 02:49:00,29.7,-8.6,30.00,NNW,344,0.0,0.0,18,0.00,,---,0.00,VWS V13.01,2013-11-20 07:49:00,
2013-11-20 02:54:00,29.5,-8.8,30.00,NNW,343,0.0,0.0,18,0.00,,---,0.00,VWS V13.01,2013-11-20 07:54:00,
2013-11-20 02:59:00,29.5,-8.8,30.00,North,353,0.0,0.0,18,0.00,,---,0.00,VWS V13.01,2013-11-20 07:59:00,
2013-11-20 03:04:00,29.3,-8.9,30.00,North,357,0.0,0.0,18,0.00,,---,0.00,VWS V13.01,2013-11-20 08:04:00,
2013-11-20 03:10:00,29.1,-9.1,30.00,North,353,0.0,0.0,18,0.00,,---,0.00,VWS V13.01,2013-11-20 08:10:00,
2013-11-20 03:15:00,29.1,-9.1,30.03,North,353,0.0,0.0,18,0.00,,---,0.00,VWS V13.01,2013-11-20 08:15:00,
2013-11-20 03:20:00,28.9,-9.2,30.03,North,353,0.0,0.0,18,0.00,,---,0.00,VWS V13.01,2013-11-20 08:20:00,
2013-11-20 03:25:00,28.9,-9.2,30.03,North,353,0.0,0.0,18,0.00,,---,0.00,VWS V13.01,2013-11-20 08:25:00,
2013-11-20 03:30:00,28.9,-9.2,30.03,NNW,337,0.0,0.0,18,0.00,,---,0.00,VWS V13.01,2013-11-20 08:30:00,
2013-11-20 03:35:00,28.8,-9.4,30.03,North,353,0.0,0.0,18,0.00,,---,0.00,VWS V13.01,2013-11-20 08:35:00,
2013-11-20 03:40:00,28.6,-9.5,30.03,North,349,0.0,0.0,18,0.00,,---,0.00,VWS V13.01,2013-11-20 08:40:00,
2013-11-20 03:45:00,28.6,-9.5,30.03,North,353,0.0,0.0,18,0.00,,---,0.00,VWS V13.01,2013-11-20 08:45:00,
2013-11-20 03:50:00,28.4,-9.7,30.03,NNE,12,0.0,0.0,18,0.00,,---,0.00,VWS V13.01,2013-11-20 08:50:00,
2013-11-20 03:55:00,28.2,-9.8,30.03,North,353,0.0,0.0,18,0.00,,---,0.00,VWS V13.01,2013-11-20 08:55:00,
2013-11-20 04:01:00,28.2,-9.8,30.03,NNE,21,0.0,0.0,18,0.00,,---,0.00,VWS V13.01,2013-11-20 09:01:00,
2013-11-20 04:06:00,28.2,-9.8,30.03,North,2,0.0,0.0,18,0.00,,---,0.00,VWS V13.01,2013-11-20 09:06:00,
2013-11-20 04:11:00,28.0,-10.0,30.03,NNW,341,0.0,0.0,18,0.00,,---,0.00,VWS V13.01,2013-11-20 09:11:00,
2013-11-20 04:16:00,28.2,-9.8,30.03,NW,307,0.0,0.0,18,0.00,,---,0.00,VWS V13.01,2013-11-20 09:16:00,
2013-11-20 04:21:00,28.0,-10.0,30.03,NNW,336,0.0,0.0,18,0.00,,---,0.00,VWS V13.01,2013-11-20 09:21:00,
2013-11-20 04:26:00,28.0,-10.0,30.03,North,353,0.0,0.0,18,0.00,,---,0.00,VWS V13.01,2013-11-20 09:26:00,
2013-11-20 04:31:00,28.0,-10.0,30.03,NNW,348,0.0,0.0,18,0.00,,---,0.00,VWS V13.01,2013-11-20 09:31:00,
2013-11-20 04:36:00,27.9,-10.1,30.03,NNW,334,0.0,0.0,18,0.00,,---,0.00,VWS V13.01,2013-11-20 09:36:00,
2013-11-20 04:41:00,27.9,-10.1,30.03,West,276,0.0,0.0,18,0.00,,---,0.00,VWS V13.01,2013-11-20 09:41:00,
2013-11-20 04:46:00,27.9,-10.1,30.06,NNW,334,0.0,0.0,18,0.00,,---,0.00,VWS V13.01,2013-11-20 09:46:00,
2013-11-20 04:51:00,27.7,-10.3,30.06,WNW,296,0.0,0.0,18,0.00,,---,0.00,VWS V13.01,2013-11-20 09:51:00,
2013-11-20 04:57:00,27.5,-10.4,30.06,NNW,340,0.0,0.0,18,0.00,,---,0.00,VWS V13.01,2013-11-20 09:57:00,
2013-11-20 05:02:00,27.5,-10.4,30.06,North,350,0.0,0.0,18,0.00,,---,0.00,VWS V13.01,2013-11-20 10:02:00,
2013-11-20 05:07:00,27.3,-10.6,30.06,North,353,0.0,0.0,18,0.00,,---,0.00,VWS V13.01,2013-11-20 10:07:00,
2013-11-20 05:12:00,27.3,-10.6,30.06,NNW,345,0.0,0.0,18,0.00,,---,0.00,VWS V13.01,2013-11-20 10:12:00,
2013-11-20 05:17:00,27.3,-10.6,30.06,West,265,0.0,0.0,18,0.00,,---,0.00,VWS V13.01,2013-11-20 10:17:00,
2013-11-20 05:22:00,27.3,-10.6,30.06,North,353,0.0,0.0,18,0.00,,---,0.00,VWS V13.01,2013-11-20 10:22:00,
2013-11-20 05:27:00,27.3,-10.6,30.06,WNW,299,0.0,0.0,18,0.00,,---,0.00,VWS V13.01,2013-11-20 10:27:00,
2013-11-20 05:32:00,27.3,-10.6,30.09,North,5,0.0,0.0,18,0.00,,---,0.00,VWS V13.01,2013-11-20 10:32:00,
2013-11-20 05:37:00,27.3,-10.6,30.09,NNW,330,0.0,0.0,18,0.00,,---,0.00,VWS V13.01,2013-11-20 10:37:00,
2013-11-20 05:42:00,27.1,-10.7,30.09,NW,324,0.0,0.0,18,0.00,,---,0.00,VWS V13.01,2013-11-20 10:42:00,
2013-11-20 05:47:00,27.1,-10.7,30.09,North,2,0.0,0.0,18,0.00,,---,0.00,VWS V13.01,2013-11-20 10:47:00,
2013-11-20 05:52:00,27.0,-10.9,30.09,NW,311,0.0,0.0,18,0.00,,---,0.00,VWS V13.01,2013-11-20 10:52:00,
2013-11-20 05:57:00,27.0,-10.9,30.09,NW,318,0.0,0.0,18,0.00,,---,0.00,VWS V13.01,2013-11-20 10:57:00,
2013-11-20 06:03:00,27.0,-10.9,30.09,NW,326,0.0,0.0,18,0.00,,---,0.00,VWS V13.01,2013-11-20 11:03:00,
2013-11-20 06:08:00,26.8,-11.0,30.09,North,353,0.0,0.0,18,0.00,,---,0.00,VWS V13.01,2013-11-20 11:08:00,
2013-11-20 06:13:00,26.8,-11.0,30.09,North,353,0.0,0.0,18,0.00,,---,0.00,VWS V13.01,2013-11-20 11:13:00,
2013-11-20 06:18:00,26.8,-11.0,30.12,NW,322,0.0,0.0,18,0.00,,---,0.00,VWS V13.01,2013-11-20 11:18:00,
2013-11-20 06:23:00,26.8,-11.0,30.12,NW,317,0.0,0.0,18,0.00,,---,0.00,VWS V13.01,2013-11-20 11:23:00,
2013-11-20 06:28:00,26.8,-11.0,30.12,NNW,339,0.0,0.0,18,0.00,,---,0.00,VWS V13.01,2013-11-20 11:28:00,
2013-11-20 06:33:00,26.6,-10.1,30.12,NNW,331,0.0,0.0,19,0.00,,---,0.00,VWS V13.01,2013-11-20 11:33:00,
2013-11-20 06:38:00,26.6,-10.1,30.12,NNW,342,0.0,0.0,19,0.00,,---,0.00,VWS V13.01,2013-11-20 11:38:00,
2013-11-20 06:43:00,26.6,-10.1,30.12,North,353,0.0,0.0,19,0.00,,---,0.00,VWS V13.01,2013-11-20 11:43:00,
2013-11-20 06:48:00,26.4,-10.2,30.12,NW,310,0.0,0.0,19,0.00,,---,0.00,VWS V13.01,2013-11-20 11:48:00,
2013-11-20 06:53:00,26.4,-10.2,30.12,North,357,0.0,0.0,19,0.00,,---,0.00,VWS V13.01,2013-11-20 11:53:00,
2013-11-20 06:58:00,26.4,-10.2,30.12,NNW,342,0.0,0.0,19,0.00,,---,0.00,VWS V13.01,2013-11-20 11:58:00,
2013-11-20 07:04:00,26.6,-10.1,30.12,NNW,337,0.0,0.0,19,0.00,,---,0.00,VWS V13.01,2013-11-20 12:04:00,
2013-11-20 07:09:00,26.6,-10.1,30.12,NW,308,0.0,0.0,19,0.00,,---,0.00,VWS V13.01,2013-11-20 12:09:00,
2013-11-20 07:14:00,26.6,-10.1,30.12,North,3,0.0,0.0,19,0.00,,---,0.00,VWS V13.01,2013-11-20 12:14:00,
2013-11-20 07:19:00,26.8,-11.0,30.12,North,357,0.0,0.0,18,0.00,,---,0.00,VWS V13.01,2013-11-20 12:19:00,
2013-11-20 07:24:00,27.0,-10.9,30.12,NNW,334,0.0,0.0,18,0.00,,---,0.00,VWS V13.01,2013-11-20 12:24:00,
2013-11-20 07:29:00,27.0,-10.9,30.12,North,353,0.0,0.0,18,0.00,,---,0.00,VWS V13.01,2013-11-20 12:29:00,
2013-11-20 07:34:00,27.1,-10.7,30.15,NW,307,0.0,0.0,18,0.00,,---,0.00,VWS V13.01,2013-11-20 12:34:00,
2013-11-20 07:39:00,27.3,-10.6,30.15,NNW,346,0.0,0.0,18,0.00,,---,0.00,VWS V13.01,2013-11-20 12:39:00,
2013-11-20 07:44:00,27.3,-10.6,30.15,WNW,299,0.0,0.0,18,0.00,,---,0.00,VWS V13.01,2013-11-20 12:44:00,
2013-11-20 07:49:00,27.5,-10.4,30.15,NNW,333,0.0,0.0,18,0.00,,---,0.00,VWS V13.01,2013-11-20 12:49:00,
2013-11-20 07:54:00,27.9,-10.1,30.15,North,353,0.0,0.0,18,0.00,,---,0.00,VWS V13.01,2013-11-20 12:54:00,
2013-11-20 07:59:00,27.9,-10.1,30.15,WNW,298,0.0,0.0,18,0.00,,---,0.00,VWS V13.01,2013-11-20 12:59:00,
2013-11-20 08:04:00,28.0,-10.0,30.15,NNW,332,0.0,0.0,18,0.00,,---,0.00,VWS V13.01,2013-11-20 13:04:00,
2013-11-20 08:10:00,28.0,-10.0,30.15,North,353,0.0,0.0,18,0.00,,---,0.00,VWS V13.01,2013-11-20 13:10:00,
2013-11-20 08:15:00,28.4,-9.7,30.15,NNW,346,0.0,0.0,18,0.00,,---,0.00,VWS V13.01,2013-11-20 13:15:00,
2013-11-20 08:20:00,28.8,-9.4,30.15,North,4,0.0,0.0,18,0.00,,---,0.00,VWS V13.01,2013-11-20 13:20:00,
2013-11-20 08:25:00,28.8,-9.4,30.15,NNW,335,0.0,0.0,18,0.00,,---,0.00,VWS V13.01,2013-11-20 13:25:00,
2013-11-20 08:30:00,29.3,-8.9,30.15,WNW,300,0.0,0.0,18,0.00,,---,0.00,VWS V13.01,2013-11-20 13:30:00,
2013-11-20 08:35:00,29.5,-8.8,30.15,NNW,333,0.0,0.0,18,0.00,,---,0.00,VWS V13.01,2013-11-20 13:35:00,
2013-11-20 08:40:00,30.7,-7.7,30.15,NNW,330,0.0,0.0,18,0.00,,---,0.00,VWS V13.01,2013-11-20 13:40:00,
2013-11-20 08:45:00,31.8,-6.8,30.15,NW,317,0.0,0.0,18,0.00,,---,0.00,VWS V13.01,2013-11-20 13:45:00,
2013-11-20 08:50:00,33.3,-3.5,30.15,North,353,0.0,0.0,20,0.00,,---,0.00,VWS V13.01,2013-11-20 13:50:00,
2013-11-20 08:55:00,34.3,-2.6,30.15,ESE,106,0.0,0.0,20,0.00,,---,0.00,VWS V13.01,2013-11-20 13:55:00,
2013-11-20 09:00:00,33.8,-3.0,30.15,NNW,340,0.0,0.0,20,0.00,,---,0.00,VWS V13.01,2013-11-20 14:00:00,
2013-11-20 09:05:00,34.9,-2.1,30.15,North,350,0.0,0.0,20,0.00,,---,0.00,VWS V13.01,2013-11-20 14:05:00,
2013-11-20 09:11:00,37.2,-1.2,30.15,North,5,0.0,0.0,19,0.00,,---,0.00,VWS V13.01,2013-11-20 14:11:00,
2013-11-20 09:16:00,37.9,-0.6,30.15,NW,324,0.0,0.0,19,0.00,,---,0.00,VWS V13.01,2013-11-20 14:16:00,
2013-11-20 09:21:00,36.3,-2.0,30.15,NNW,332,0.0,0.0,19,0.00,,---,0.00,VWS V13.01,2013-11-20 14:21:00,
2013-11-20 09:26:00,34.7,-2.3,30.15,NNE,15,0.0,0.0,20,0.00,,---,0.00,VWS V13.01,2013-11-20 14:26:00,
2013-11-20 09:31:00,35.4,-1.6,30.18,North,357,0.0,0.0,20,0.00,,---,0.00,VWS V13.01,2013-11-20 14:31:00,
2013-11-20 09:36:00,34.3,-2.6,30.18,NNW,334,0.0,0.0,20,0.00,,---,0.00,VWS V13.01,2013-11-20 14:36:00,
2013-11-20 09:41:00,34.9,-2.1,30.18,North,357,0.0,0.0,20,0.00,,---,0.00,VWS V13.01,2013-11-20 14:41:00,
2013-11-20 09:46:00,35.2,-1.8,30.18,North,353,0.0,0.0,20,0.00,,---,0.00,VWS V13.01,2013-11-20 14:46:00,
2013-11-20 09:51:00,36.1,-2.1,30.18,NW,311,0.0,0.0,19,0.00,,---,0.00,VWS V13.01,2013-11-20 14:51:00,
2013-11-20 09:56:00,36.1,-2.1,30.18,WNW,287,0.0,0.0,19,0.00,,---,0.00,VWS V13.01,2013-11-20 14:56:00,
2013-11-20 10:01:00,35.8,-2.4,30.18,North,357,0.0,0.0,19,0.00,,---,0.00,VWS V13.01,2013-11-20 15:01:00,
2013-11-20 10:06:00,35.4,-1.6,30.18,NNW,334,0.0,0.0,20,0.00,,---,0.00,VWS V13.01,2013-11-20 15:06:00,
2013-11-20 10:12:00,36.3,-2.0,30.18,North,357,0.0,0.0,19,0.00,,---,0.00,VWS V13.01,2013-11-20 15:12:00,
2013-11-20 10:17:00,37.6,-0.9,30.18,NNW,346,0.0,0.0,19,0.00,,---,0.00,VWS V13.01,2013-11-20 15:17:00,
2013-11-20 10:22:00,39.7,-0.3,30.18,NW,309,0.0,0.0,18,0.00,,---,0.00,VWS V13.01,2013-11-20 15:22:00,
2013-11-20 10:27:00,41.7,1.4,30.18,NNW,343,0.0,0.0,18,0.00,,---,0.00,VWS V13.01,2013-11-20 15:27:00,
2013-11-20 10:32:00,39.7,-0.3,30.18,North,2,0.0,0.0,18,0.00,,---,0.00,VWS V13.01,2013-11-20 15:32:00,
2013-11-20 10:37:00,40.6,0.5,30.18,NW,308,0.0,0.0,18,0.00,,---,0.00,VWS V13.01,2013-11-20 15:37:00,
2013-11-20 10:42:00,43.0,2.4,30.18,North,6,0.0,0.0,18,0.00,,---,0.00,VWS V13.01,2013-11-20 15:42:00,
2013-11-20 10:47:00,41.5,1.2,30.18,NNW,334,0.0,0.0,18,0.00,,---,0.00,VWS V13.01,2013-11-20 15:47:00,
2013-11-20 10:52:00,41.9,1.5,30.18,North,353,0.0,0.0,18,0.00,,---,0.00,VWS V13.01,2013-11-20 15:52:00,
2013-11-20 10:57:00,43.3,2.7,30.18,NNW,330,0.0,0.0,18,0.00,,---,0.00,VWS V13.01,2013-11-20 15:57:00,
2013-11-20 11:02:00,43.7,3.0,30.18,North,353,0.0,0.0,18,0.00,,---,0.00,VWS V13.01,2013-11-20 16:02:00,
2013-11-20 11:07:00,45.7,3.4,30.18,North,1,0.0,0.0,17,0.00,,---,0.00,VWS V13.01,2013-11-20 16:07:00,
2013-11-20 11:12:00,47.1,4.6,30.18,NNW,330,0.0,0.0,17,0.00,,---,0.00,VWS V13.01,2013-11-20 16:12:00,
2013-11-20 11:18:00,48.7,4.6,30.15,NNW,334,0.0,0.0,16,0.00,,---,0.00,VWS V13.01,2013-11-20 16:18:00,
2013-11-20 11:23:00,49.6,5.3,30.15,NNW,344,0.0,0.0,16,0.00,,---,0.00,VWS V13.01,2013-11-20 16:23:00,
2013-11-20 11:28:00,47.8,5.2,30.15,North,353,0.0,0.0,17,0.00,,---,0.00,VWS V13.01,2013-11-20 16:28:00,
2013-11-20 11:33:00,46.0,3.7,30.15,NW,319,0.0,0.0,17,0.00,,---,0.00,VWS V13.01,2013-11-20 16:33:00,
2013-11-20 11:38:00,44.2,3.4,30.15,ENE,76,0.0,0.0,18,0.00,,---,0.00,VWS V13.01,2013-11-20 16:38:00,
2013-11-20 11:43:00,44.6,2.5,30.15,East,85,0.0,0.0,17,0.00,,---,0.00,VWS V13.01,2013-11-20 16:43:00,
2013-11-20 11:48:00,44.1,3.3,30.15,North,6,0.0,0.0,18,0.00,,---,0.00,VWS V13.01,2013-11-20 16:48:00,
2013-11-20 11:53:00,44.1,3.3,30.15,North,7,0.0,0.0,18,0.00,,---,0.00,VWS V13.01,2013-11-20 16:53:00,
2013-11-20 11:58:00,45.0,2.8,30.15,NNW,331,0.0,0.0,17,0.00,,---,0.00,VWS V13.01,2013-11-20 16:58:00,
2013-11-20 12:03:00,44.8,2.6,30.15,North,353,0.0,0.0,17,0.00,,---,0.00,VWS V13.01,2013-11-20 17:03:00,
2013-11-20 12:08:00,46.2,3.8,30.15,North,353,0.0,0.0,17,0.00,,---,0.00,VWS V13.01,2013-11-20 17:08:00,
2013-11-20 12:13:00,47.3,4.7,30.15,North,357,0.0,0.0,17,0.00,,---,0.00,VWS V13.01,2013-11-20 17:13:00,
2013-11-20 12:19:00,50.5,6.0,30.15,North,353,0.0,0.0,16,0.00,,---,0.00,VWS V13.01,2013-11-20 17:19:00,
2013-11-20 12:24:00,51.3,6.6,30.15,ENE,63,0.0,0.0,16,0.00,,---,0.00,VWS V13.01,2013-11-20 17:24:00,
2013-11-20 12:29:00,50.5,6.0,30.15,ESE,117,0.0,0.0,16,0.00,,---,0.00,VWS V13.01,2013-11-20 17:29:00,
2013-11-20 12:34:00,48.7,4.6,30.15,North,6,0.0,0.0,16,0.00,,---,0.00,VWS V13.01,2013-11-20 17:34:00,
2013-11-20 12:39:00,47.8,5.2,30.15,NNW,348,0.0,0.0,17,0.00,,---,0.00,VWS V13.01,2013-11-20 17:39:00,
2013-11-20 12:44:00,46.6,4.1,30.15,NNW,348,0.0,0.0,17,0.00,,---,0.00,VWS V13.01,2013-11-20 17:44:00,
2013-11-20 12:49:00,46.0,3.7,30.15,ENE,69,0.0,0.0,17,0.00,,---,0.00,VWS V13.01,2013-11-20 17:49:00,
2013-11-20 12:54:00,46.0,3.7,30.15,ENE,77,0.0,0.0,17,0.00,,---,0.00,VWS V13.01,2013-11-20 17:54:00,
2013-11-20 12:59:00,46.6,4.1,30.15,NNW,330,0.0,0.0,17,0.00,,---,0.00,VWS V13.01,2013-11-20 17:59:00,
2013-11-20 13:04:00,46.4,4.0,30.15,ESE,102,0.0,0.0,17,0.00,,---,0.00,VWS V13.01,2013-11-20 18:04:00,
2013-11-20 13:09:00,45.5,3.2,30.15,ENE,59,0.0,0.0,17,0.00,,---,0.00,VWS V13.01,2013-11-20 18:09:00,
2013-11-20 13:14:00,44.6,2.5,30.15,North,353,0.0,0.0,17,0.00,,---,0.00,VWS V13.01,2013-11-20 18:14:00,
2013-11-20 13:20:00,44.1,3.3,30.15,NNW,340,0.0,0.0,18,0.00,,---,0.00,VWS V13.01,2013-11-20 18:20:00,
2013-11-20 13:25:00,43.7,3.0,30.15,North,357,0.0,0.0,18,0.00,,---,0.00,VWS V13.01,2013-11-20 18:25:00,
2013-11-20 13:30:00,44.1,3.3,30.15,NNE,20,0.0,0.0,18,0.00,,---,0.00,VWS V13.01,2013-11-20 18:30:00,
2013-11-20 13:35:00,43.9,3.1,30.15,NNW,333,0.0,0.0,18,0.00,,---,0.00,VWS V13.01,2013-11-20 18:35:00,
2013-11-20 13:40:00,43.5,2.8,30.15,North,9,0.0,0.0,18,0.00,,---,0.00,VWS V13.01,2013-11-20 18:40:00,
2013-11-20 13:45:00,43.7,3.0,30.15,ESE,103,0.0,0.0,18,0.00,,---,0.00,VWS V13.01,2013-11-20 18:45:00,
2013-11-20 13:50:00,43.7,3.0,30.15,SSE,167,0.0,0.0,18,0.00,,---,0.00,VWS V13.01,2013-11-20 18:50:00,
2013-11-20 13:55:00,43.9,3.1,30.15,NNW,346,0.0,0.0,18,0.00,,---,0.00,VWS V13.01,2013-11-20 18:55:00,
2013-11-20 14:00:00,43.3,2.7,30.15,NNW,346,0.0,0.0,18,0.00,,---,0.00,VWS V13.01,2013-11-20 19:00:00,
2013-11-20 14:05:00,43.5,2.8,30.15,NE,54,0.0,0.0,18,0.00,,---,0.00,VWS V13.01,2013-11-20 19:05:00,
2013-11-20 14:10:00,43.3,2.7,30.15,ENE,67,0.0,0.0,18,0.00,,---,0.00,VWS V13.01,2013-11-20 19:10:00,
2013-11-20 14:15:00,44.2,3.4,30.15,ENE,67,0.0,0.0,18,0.00,,---,0.00,VWS V13.01,2013-11-20 19:15:00,
2013-11-20 14:21:00,44.1,3.3,30.15,North,4,0.0,0.0,18,0.00,,---,0.00,VWS V13.01,2013-11-20 19:21:00,
2013-11-20 14:26:00,43.5,2.8,30.15,North,349,0.0,0.0,18,0.00,,---,0.00,VWS V13.01,2013-11-20 19:26:00,
2013-11-20 14:31:00,43.3,2.7,30.15,NNE,19,0.0,0.0,18,0.00,,---,0.00,VWS V13.01,2013-11-20 19:31:00,
2013-11-20 14:36:00,42.6,2.1,30.15,North,353,0.0,0.0,18,0.00,,---,0.00,VWS V13.01,2013-11-20 19:36:00,
2013-11-20 14:41:00,42.3,1.8,30.15,North,3,0.0,0.0,18,0.00,,---,0.00,VWS V13.01,2013-11-20 19:41:00,
2013-11-20 14:46:00,41.7,1.4,30.15,NNE,32,0.0,0.0,18,0.00,,---,0.00,VWS V13.01,2013-11-20 19:46:00,
2013-11-20 14:51:00,41.5,1.2,30.15,NNE,20,0.0,0.0,18,0.00,,---,0.00,VWS V13.01,2013-11-20 19:51:00,
2013-11-20 14:56:00,41.4,1.0,30.15,NNE,20,0.0,0.0,18,0.00,,---,0.00,VWS V13.01,2013-11-20 19:56:00,
2013-11-20 15:01:00,41.2,0.9,30.15,ESE,117,0.0,0.0,18,0.00,,---,0.00,VWS V13.01,2013-11-20 20:01:00,
2013-11-20 15:06:00,41.2,0.9,30.15,ESE,111,0.0,0.0,18,0.00,,---,0.00,VWS V13.01,2013-11-20 20:06:00,
2013-11-20 15:11:00,41.2,0.9,30.15,ENE,71,0.0,0.0,18,0.00,,---,0.00,VWS V13.01,2013-11-20 20:11:00,
2013-11-20 15:16:00,41.0,0.8,30.15,ENE,71,0.0,0.0,18,0.00,,---,0.00,VWS V13.01,2013-11-20 20:16:00,
2013-11-20 15:21:00,40.8,0.6,30.15,ENE,71,0.0,0.0,18,0.00,,---,0.00,VWS V13.01,2013-11-20 20:21:00,
2013-11-20 15:27:00,40.6,0.5,30.15,ENE,71,0.0,0.0,18,0.00,,---,0.00,VWS V13.01,2013-11-20 20:27:00,
2013-11-20 15:32:00,40.3,0.2,30.15,ENE,63,0.0,0.0,18,0.00,,---,0.00,VWS V13.01,2013-11-20 20:32:00,
2013-11-20 15:37:00,39.7,-0.3,30.15,ENE,63,0.0,0.0,18,0.00,,---,0.00,VWS V13.01,2013-11-20 20:37:00,
2013-11-20 15:42:00,39.4,-0.6,30.15,ENE,63,0.0,0.0,18,0.00,,---,0.00,VWS V13.01,2013-11-20 20:42:00,
2013-11-20 15:47:00,39.0,0.3,30.18,ENE,63,0.0,0.0,19,0.00,,---,0.00,VWS V13.01,2013-11-20 20:47:00,
2013-11-20 15:52:00,38.5,-0.2,30.18,ENE,64,0.0,0.0,19,0.00,,---,0.00,VWS V13.01,2013-11-20 20:52:00,
2013-11-20 15:57:00,38.1,-0.5,30.18,ENE,64,0.0,0.0,19,0.00,,---,0.00,VWS V13.01,2013-11-20 20:57:00,
2013-11-20 16:02:00,37.6,-0.9,30.18,ENE,64,0.0,0.0,19,0.00,,---,0.00,VWS V13.01,2013-11-20 21:02:00,
2013-11-20 16:07:00,37.2,-1.2,30.18,ENE,64,0.0,0.0,19,0.00,,---,0.00,VWS V13.01,2013-11-20 21:07:00,
2013-11-20 16:13:00,36.7,-1.7,30.18,ENE,64,0.0,0.0,19,0.00,,---,0.00,VWS V13.01,2013-11-20 21:13:00,
2013-11-20 16:18:00,36.3,-2.0,30.18,ENE,64,0.0,0.0,19,0.00,,---,0.00,VWS V13.01,2013-11-20 21:18:00,
2013-11-20 16:23:00,36.0,-2.3,30.18,ENE,64,0.0,0.0,19,0.00,,---,0.00,VWS V13.01,2013-11-20 21:23:00,
2013-11-20 16:28:00,35.6,-2.6,30.18,ENE,64,0.0,0.0,19,0.00,,---,0.00,VWS V13.01,2013-11-20 21:28:00,
2013-11-20 16:33:00,35.2,-1.8,30.18,ENE,64,0.0,0.0,20,0.00,,---,0.00,VWS V13.01,2013-11-20 21:33:00,
2013-11-20 16:38:00,34.9,-2.1,30.18,ENE,64,0.0,0.0,20,0.00,,---,0.00,VWS V13.01,2013-11-20 21:38:00,
2013-11-20 16:43:00,34.5,-2.4,30.18,ENE,64,0.0,0.0,20,0.00,,---,0.00,VWS V13.01,2013-11-20 21:43:00,
2013-11-20 16:48:00,34.3,-2.6,30.18,ENE,64,0.0,0.0,20,0.00,,---,0.00,VWS V13.01,2013-11-20 21:48:00,
2013-11-20 16:53:00,34.0,-2.9,30.18,ENE,64,0.0,0.0,20,0.00,,---,0.00,VWS V13.01,2013-11-20 21:53:00,
2013-11-20 16:58:00,33.6,-3.2,30.18,ENE,64,0.0,0.0,20,0.00,,---,0.00,VWS V13.01,2013-11-20 21:58:00,
2013-11-20 17:04:00,33.3,-5.7,30.18,ENE,64,0.0,0.0,18,0.00,,---,0.00,VWS V13.01,2013-11-20 22:04:00,
2013-11-20 17:09:00,32.9,-5.9,30.18,ENE,64,0.0,0.0,18,0.00,,---,0.00,VWS V13.01,2013-11-20 22:09:00,
2013-11-20 17:14:00,32.7,-6.1,30.18,ENE,64,0.0,0.0,18,0.00,,---,0.00,VWS V13.01,2013-11-20 22:14:00,
2013-11-20 17:19:00,32.5,-6.2,30.18,ENE,64,0.0,0.0,18,0.00,,---,0.00,VWS V13.01,2013-11-20 22:19:00,
2013-11-20 17:24:00,32.2,-6.6,30.18,ENE,64,0.0,0.0,18,0.00,,---,0.00,VWS V13.01,2013-11-20 22:24:00,
2013-11-20 17:29:00,32.0,-6.7,30.18,ENE,64,0.0,0.0,18,0.00,,---,0.00,VWS V13.01,2013-11-20 22:29:00,
2013-11-20 17:34:00,31.8,-6.8,30.18,ENE,64,0.0,0.0,18,0.00,,---,0.00,VWS V13.01,2013-11-20 22:34:00,
2013-11-20 17:39:00,31.6,-7.0,30.18,ENE,64,0.0,0.0,18,0.00,,---,0.00,VWS V13.01,2013-11-20 22:39:00,
2013-11-20 17:45:00,31.3,-7.3,30.18,ENE,64,0.0,0.0,18,0.00,,---,0.00,VWS V13.01,2013-11-20 22:45:00,
2013-11-20 17:50:00,31.1,-7.4,30.18,ENE,64,0.0,0.0,18,0.00,,---,0.00,VWS V13.01,2013-11-20 22:50:00,
2013-11-20 17:55:00,30.9,-7.6,30.18,ENE,64,0.0,0.0,18,0.00,,---,0.00,VWS V13.01,2013-11-20 22:55:00,
2013-11-20 18:00:00,30.9,-7.6,30.21,ENE,64,0.0,0.0,18,0.00,,---,0.00,VWS V13.01,2013-11-20 23:00:00,
2013-11-20 18:05:00,30.6,-7.9,30.21,ENE,64,0.0,0.0,18,0.00,,---,0.00,VWS V13.01,2013-11-20 23:05:00,
2013-11-20 18:10:00,30.2,-8.2,30.21,ENE,64,0.0,0.0,18,0.00,,---,0.00,VWS V13.01,2013-11-20 23:10:00,
2013-11-20 18:15:00,30.0,-8.3,30.21,ENE,64,0.0,0.0,18,0.00,,---,0.00,VWS V13.01,2013-11-20 23:15:00,
2013-11-20 18:20:00,30.0,-8.3,30.21,ENE,64,0.0,0.0,18,0.00,,---,0.00,VWS V13.01,2013-11-20 23:20:00,
2013-11-20 18:25:00,29.8,-8.5,30.21,ENE,64,0.0,0.0,18,0.00,,---,0.00,VWS V13.01,2013-11-20 23:25:00,
2013-11-20 18:31:00,29.7,-8.6,30.21,ENE,64,0.0,0.0,18,0.00,,---,0.00,VWS V13.01,2013-11-20 23:31:00,
2013-11-20 18:36:00,29.5,-8.8,30.21,ENE,64,0.0,0.0,18,0.00,,---,0.00,VWS V13.01,2013-11-20 23:36:00,
2013-11-20 18:41:00,29.3,-8.9,30.21,ENE,64,0.0,0.0,18,0.00,,---,0.00,VWS V13.01,2013-11-20 23:41:00,
2013-11-20 18:46:00,29.3,-8.9,30.21,ENE,64,0.0,0.0,18,0.00,,---,0.00,VWS V13.01,2013-11-20 23:46:00,
2013-11-20 18:51:00,29.1,-9.1,30.21,ENE,64,0.0,0.0,18,0.00,,---,0.00,VWS V13.01,2013-11-20 23:51:00,
2013-11-20 18:56:00,28.9,-9.2,30.21,ENE,64,0.0,0.0,18,0.00,,---,0.00,VWS V13.01,2013-11-20 23:56:00,
2013-11-20 19:01:00,28.9,-9.2,30.21,ENE,64,0.0,0.0,18,0.00,,---,0.00,VWS V13.01,2013-11-21 00:01:00,
2013-11-20 19:06:00,28.6,-9.5,30.21,ENE,64,0.0,0.0,18,0.00,,---,0.00,VWS V13.01,2013-11-21 00:06:00,
2013-11-20 19:11:00,28.6,-9.5,30.21,ENE,64,0.0,0.0,18,0.00,,---,0.00,VWS V13.01,2013-11-21 00:11:00,
2013-11-20 19:17:00,28.6,-9.5,30.21,ENE,64,0.0,0.0,18,0.00,,---,0.00,VWS V13.01,2013-11-21 00:17:00,
2013-11-20 19:22:00,28.6,-9.5,30.21,ENE,64,0.0,0.0,18,0.00,,---,0.00,VWS V13.01,2013-11-21 00:22:00,
2013-11-20 19:27:00,28.6,-9.5,30.21,ENE,64,0.0,0.0,18,0.00,,---,0.00,VWS V13.01,2013-11-21 00:27:00,
2013-11-20 19:32:00,28.6,-9.5,30.21,ENE,64,0.0,0.0,18,0.00,,---,0.00,VWS V13.01,2013-11-21 00:32:00,
2013-11-20 19:37:00,28.4,-9.7,30.21,ENE,64,0.0,0.0,18,0.00,,---,0.00,VWS V13.01,2013-11-21 00:37:00,
2013-11-20 19:42:00,28.2,-9.8,30.21,ENE,64,0.0,0.0,18,0.00,,---,0.00,VWS V13.01,2013-11-21 00:42:00,
2013-11-20 19:47:00,28.2,-9.8,30.21,ENE,64,0.0,0.0,18,0.00,,---,0.00,VWS V13.01,2013-11-21 00:47:00,
2013-11-20 19:52:00,28.2,-9.8,30.21,ENE,64,0.0,0.0,18,0.00,,---,0.00,VWS V13.01,2013-11-21 00:52:00,
2013-11-20 19:57:00,28.0,-10.0,30.21,ENE,64,0.0,0.0,18,0.00,,---,0.00,VWS V13.01,2013-11-21 00:57:00,
2013-11-20 20:02:00,27.9,-10.1,30.21,ENE,64,0.0,0.0,18,0.00,,---,0.00,VWS V13.01,2013-11-21 01:02:00,
2013-11-20 20:08:00,27.7,-10.3,30.21,ENE,64,0.0,0.0,18,0.00,,---,0.00,VWS V13.01,2013-11-21 01:08:00,
2013-11-20 20:13:00,27.5,-10.4,30.21,ENE,64,0.0,0.0,18,0.00,,---,0.00,VWS V13.01,2013-11-21 01:13:00,
2013-11-20 20:18:00,27.5,-10.4,30.21,ENE,64,0.0,0.0,18,0.00,,---,0.00,VWS V13.01,2013-11-21 01:18:00,
2013-11-20 20:23:00,27.3,-10.6,30.21,ENE,64,0.0,0.0,18,0.00,,---,0.00,VWS V13.01,2013-11-21 01:23:00,
2013-11-20 20:28:00,27.3,-10.6,30.21,ENE,64,0.0,0.0,18,0.00,,---,0.00,VWS V13.01,2013-11-21 01:28:00,
2013-11-20 20:33:00,27.3,-10.6,30.21,ENE,64,0.0,0.0,18,0.00,,---,0.00,VWS V13.01,2013-11-21 01:33:00,
2013-11-20 20:38:00,27.1,-10.7,30.21,ENE,64,0.0,0.0,18,0.00,,---,0.00,VWS V13.01,2013-11-21 01:38:00,
2013-11-20 20:43:00,27.0,-10.9,30.21,ENE,64,0.0,0.0,18,0.00,,---,0.00,VWS V13.01,2013-11-21 01:43:00,
2013-11-20 20:49:00,27.0,-10.9,30.21,ENE,64,0.0,0.0,18,0.00,,---,0.00,VWS V13.01,2013-11-21 01:49:00,
2013-11-20 20:54:00,26.8,-11.0,30.21,ENE,64,0.0,0.0,18,0.00,,---,0.00,VWS V13.01,2013-11-21 01:54:00,
2013-11-20 20:59:00,26.8,-11.0,30.21,ENE,64,0.0,0.0,18,0.00,,---,0.00,VWS V13.01,2013-11-21 01:59:00,
2013-11-20 21:04:00,26.6,-10.1,30.21,ENE,64,0.0,0.0,19,0.00,,---,0.00,VWS V13.01,2013-11-21 02:04:00,
2013-11-20 21:09:00,26.4,-10.2,30.21,ENE,64,0.0,0.0,19,0.00,,---,0.00,VWS V13.01,2013-11-21 02:09:00,
2013-11-20 21:14:00,26.4,-10.2,30.21,ENE,64,0.0,0.0,19,0.00,,---,0.00,VWS V13.01,2013-11-21 02:14:00,
2013-11-20 21:19:00,26.4,-10.2,30.21,ENE,64,0.0,0.0,19,0.00,,---,0.00,VWS V13.01,2013-11-21 02:19:00,
2013-11-20 21:24:00,26.4,-10.2,30.21,ENE,64,0.0,0.0,19,0.00,,---,0.00,VWS V13.01,2013-11-21 02:24:00,
2013-11-20 21:30:00,26.4,-10.2,30.21,ENE,64,0.0,0.0,19,0.00,,---,0.00,VWS V13.01,2013-11-21 02:30:00,
2013-11-20 21:35:00,26.2,-10.4,30.21,ENE,64,0.0,0.0,19,0.00,,---,0.00,VWS V13.01,2013-11-21 02:35:00,
2013-11-20 21:40:00,26.1,-10.5,30.21,ENE,64,0.0,0.0,19,0.00,,---,0.00,VWS V13.01,2013-11-21 02:40:00,
2013-11-20 21:45:00,26.1,-10.5,30.21,ENE,64,0.0,0.0,19,0.00,,---,0.00,VWS V13.01,2013-11-21 02:45:00,
2013-11-20 21:50:00,26.1,-10.5,30.21,ENE,64,0.0,0.0,19,0.00,,---,0.00,VWS V13.01,2013-11-21 02:50:00,
2013-11-20 21:55:00,26.1,-10.5,30.21,ENE,64,0.0,0.0,19,0.00,,---,0.00,VWS V13.01,2013-11-21 02:55:00,
2013-11-20 22:00:00,26.1,-10.5,30.24,ENE,64,0.0,0.0,19,0.00,,---,0.00,VWS V13.01,2013-11-21 03:00:00,
2013-11-20 22:06:00,26.1,-10.5,30.24,ENE,64,0.0,0.0,19,0.00,,---,0.00,VWS V13.01,2013-11-21 03:06:00,
2013-11-20 22:11:00,26.1,-10.5,30.24,ENE,64,0.0,0.0,19,0.00,,---,0.00,VWS V13.01,2013-11-21 03:11:00,
2013-11-20 22:16:00,26.1,-10.5,30.24,ENE,64,0.0,0.0,19,0.00,,---,0.00,VWS V13.01,2013-11-21 03:16:00,
2013-11-20 22:21:00,25.9,-10.7,30.24,ENE,64,0.0,0.0,19,0.00,,---,0.00,VWS V13.01,2013-11-21 03:21:00,
2013-11-20 22:26:00,25.7,-10.9,30.24,ENE,64,0.0,0.0,19,0.00,,---,0.00,VWS V13.01,2013-11-21 03:26:00,
2013-11-20 22:31:00,25.5,-11.0,30.24,ENE,64,0.0,0.0,19,0.00,,---,0.00,VWS V13.01,2013-11-21 03:31:00,
2013-11-20 22:37:00,25.3,-11.1,30.24,ENE,64,0.0,0.0,19,0.00,,---,0.00,VWS V13.01,2013-11-21 03:37:00,
2013-11-20 22:42:00,25.2,-11.3,30.24,ENE,64,0.0,0.0,19,0.00,,---,0.00,VWS V13.01,2013-11-21 03:42:00,
2013-11-20 22:47:00,24.8,-11.6,30.24,ENE,64,0.0,0.0,19,0.00,,---,0.00,VWS V13.01,2013-11-21 03:47:00,
2013-11-20 22:52:00,24.8,-11.6,30.24,ENE,64,0.0,0.0,19,0.00,,---,0.00,VWS V13.01,2013-11-21 03:52:00,
2013-11-20 22:57:00,25.0,-11.4,30.24,ENE,64,0.0,0.0,19,0.00,,---,0.00,VWS V13.01,2013-11-21 03:57:00,
2013-11-20 23:02:00,25.0,-11.4,30.24,ENE,64,0.0,0.0,19,0.00,,---,0.00,VWS V13.01,2013-11-21 04:02:00,
2013-11-20 23:07:00,24.8,-11.6,30.24,ENE,64,0.0,0.0,19,0.00,,---,0.00,VWS V13.01,2013-11-21 04:07:00,
2013-11-20 23:13:00,24.6,-11.8,30.24,ENE,64,0.0,0.0,19,0.00,,---,0.00,VWS V13.01,2013-11-21 04:13:00,
2013-11-20 23:18:00,24.6,-11.8,30.24,ENE,64,0.0,0.0,19,0.00,,---,0.00,VWS V13.01,2013-11-21 04:18:00,
2013-11-20 23:23:00,24.6,-11.8,30.24,ENE,64,0.0,0.0,19,0.00,,---,0.00,VWS V13.01,2013-11-21 04:23:00,
2013-11-20 23:28:00,24.6,-11.8,30.24,ENE,64,0.0,0.0,19,0.00,,---,0.00,VWS V13.01,2013-11-21 04:28:00,
2013-11-20 23:33:00,24.4,-11.9,30.24,ENE,64,0.0,0.0,19,0.00,,---,0.00,VWS V13.01,2013-11-21 04:33:00,
2013-11-20 23:39:00,24.4,-11.9,30.24,ENE,64,0.0,0.0,19,0.00,,---,0.00,VWS V13.01,2013-11-21 04:39:00,
2013-11-20 23:44:00,24.4,-11.9,30.24,ENE,64,0.0,0.0,19,0.00,,---,0.00,VWS V13.01,2013-11-21 04:44:00,
2013-11-20 23:49:00,24.4,-11.9,30.24,ENE,64,0.0,0.0,19,0.00,,---,0.00,VWS V13.01,2013-11-21 04:49:00,
2013-11-20 23:54:00,24.3,-12.1,30.24,ENE,64,0.0,0.0,19,0.00,,---,0.00,VWS V13.01,2013-11-21 04:54:00,
2013-11-20 23:59:00,24.3,-12.1,30.24,ENE,64,0.0,0.0,19,0.00,,---,0.00,VWS V13.01,2013-11-21 04:59:00,